Tracking 25964 objects as of 11-Aug-2022
HD Live streaming from Space Station
objects crossing your sky now

EXPLORER 11

Track EXPLORER 11 now!
10-day predictions
EXPLORER 11 is classified as:


NORAD ID: 107
Int'l Code: 1961-013A
Perigee: 473.8 km
Apogee: 1,257.7 km
Inclination: 28.8 °
Period: 102.1 minutes
Semi major axis: 7236 km
RCS: 0.4708 m2 (medium)
Launch date: April 27, 1961
Source: United States (US)
Launch site: AIR FORCE EASTERN TEST RANGE (AFETR)
aabbcc
Your satellite tracking list
Your tracking list is empty




NASA's NSSDC Master Catalog

Two Line Element Set (TLE):
1   107U 61013A   22223.27690658  .00002541  00000-0  32361-3 0  9993
2   107  28.7871  66.2042 0541595  82.4860 283.6879 14.10231475 76598
Source of the keplerian elements: AFSPC